Regional Weather Roundup
Issued by NWS

Home | Current Version | Previous Version | Graphics & Text | Print | Product List | Glossary On
Versions: 1 2 3 4 5 6 7 8 9 10 11 12 13 14 15 16 17 18 19 20 21 22 23 24 25 26 27 28 29 30 31 32 33 34 35 36 37 38 39 40 41 42 43 44 45 46 47 48 49 50
000
ASUS43 KLMK 231410
RWRKY
KENTUCKY REGIONAL WEATHER ROUNDUP
NATIONAL WEATHER SERVICE LOUISVILLE KY
900 AM EST THU NOV 23 2017

NOTE "FAIR" INDICATES FEW OR NO CLOUDS BELOW 12,000 FEET
WITH NO SIGNIFICANT WEATHER AND/OR OBSTRUCTIONS TO VISIBILITY.

KYZ001>023-026-027-061>063-070>075-231500-
WESTERN AND SOUTH CENTRAL KENTUCKY

CITY           SKY/WX    TMP DP  RH WIND       PRES   REMARKS
PADUCAH        SUNNY     28  24  85 CALM      30.19R
HENDERSON      SUNNY     30  28  92 CALM      30.19R
OWENSBORO      SUNNY     34  30  85 SE3       30.19R
HOPKINSVILLE   SUNNY     32  24  73 CALM      30.17S
BOWLING GREEN  SUNNY     30  26  85 CALM      30.19S
GLASGOW        SUNNY     30  26  84 CALM      30.18S
$$

KYZ024-025-028>034-038-045-046-053-231500-
NORTH CENTRAL KENTUCKY

CITY           SKY/WX    TMP DP  RH WIND       PRES   REMARKS
LOUISVILLE/SDF PTSUNNY   31  26  82 SE5       30.19R WCI  26
LOUISVILLE/LOU MOSUNNY   31  28  89 CALM      30.19R
FORT KNOX      MOSUNNY   29  24  83 CALM      30.16R
$$

KYZ035>037-039>044-047>052-055>060-089>105-231500-
NORTHEAST KENTUCKY

CITY           SKY/WX    TMP DP  RH WIND       PRES   REMARKS
LEXINGTON      SUNNY     29  25  85 CALM      30.17R
COVINGTON      CLOUDY    30  27  88 S5        30.15S WCI  25
FRANKFORT      SUNNY     28  23  81 CALM      30.17R
$$

KYZ054-064>069-076>088-106>120-231500-
SOUTHEAST KENTUCKY

CITY           SKY/WX    TMP DP  RH WIND       PRES   REMARKS
JACKSON        SUNNY     28  24  85 CALM      30.13F
LONDON         SUNNY     28  23  81 CALM      30.14F
SOMERSET       SUNNY     30  27  86 CALM      30.18S
MIDDLESBORO    SUNNY     28  26  94 CALM      30.16S
MONTICELLO     MOSUNNY   34  32  92 CALM      30.18S
$$





USA.gov is the U.S. government's official web portal to all federal, state and local government web resources and services.